Regional Weather Roundup
Issued by NWS

Home | Current Version | Previous Version | Text Only | Print | Product List | Glossary Off
Versions: 1 2 3 4 5 6 7 8 9 10 11 12 13 14 15 16 17 18 19 20 21 22 23 24 25 26 27 28 29 30 31 32 33 34 35 36 37 38 39 40 41 42 43 44 45 46 47 48 49 50

000
ASUS45 KABQ 021410
RWRNM
WEATHER ROUNDUP FOR NEW MEXICO
NATIONAL WEATHER SERVICE ALBUQUERQUE NM
800 AM MDT THU OCT 02 2014

NOTE: "FAIR" MEANS FEW OR NO CLOUDS BELOW 12,000 FEET AGL WITH NO
       SIGNIFICANT WEATHER OR OBSTRUCTIONS TO VISION.

      THIS PRODUCT IS RELEASED AS TWO VERSIONS.  ONE VERSION NEAR
      THE TOP OF THE HOUR CONTAINING PRELIMINARY DATA FROM ALBUQUERQUE
      AND OTHER STATIONS.  A FINAL VERSION WITH ADDITIONAL DATA IS
      ISSUED ABOUT 10 MINUTES AFTER THE HOUR.

NMZ501-503-504-510>518-021500-
NORTHWEST PLATEAU/NORTHCENTRAL MOUNTAINS

CITY           SKY/WX    TMP DP  RH WIND       PRES   REMARKS
FARMINGTON     CLEAR     42  31  64 W7        30.22R
LOS ALAMOS     MOSUNNY   45  19  36 N18G32    30.19R
SANTA FE       SUNNY     45  23  42 N7        30.17R
TAOS           CLOUDY    43  25  49 NW9       30.22R
ANGEL FIRE     FAIR      37  27  68 N16       30.22R WCI  28

$$
NMZ402-403-502-505>509-021500-
WESTCENTRAL MOUNTAINS/SOUTHWEST MOUNTAINS

CITY           SKY/WX    TMP DP  RH WIND       PRES   REMARKS
GALLUP         CLEAR     34  29  82 CALM      30.27R
GRANTS         CLEAR     43  21  42 NW10      30.26S
SILVER CITY    SUNNY     55  36  47 NW13      30.19R

$$
NMZ407-409-411-412-021500-
SOUTHERN DESERTS

CITY           SKY/WX    TMP DP  RH WIND       PRES   REMARKS
LORDSBURG      FAIR      52  39  62 MISG      30.12R
DEMING         SUNNY     52  39  61 S3        30.10R
LAS CRUCES     SUNNY     57  38  49 W3        30.11R
HOLLOMAN AFB   SUNNY     60  38  44 N12       30.07R
ALAMOGORDO     SUNNY     59  37  44 N12       30.08R
T OR C         SUNNY     60  37  42 NW9       30.13R

$$
NMZ519>523-021500-
CENTRAL VALLEYS/CENTRAL HIGHLANDS

CITY           SKY/WX    TMP DP  RH WIND       PRES   REMARKS
ALBUQUERQUE    SUNNY     52  22  30 N7        30.20R
DOUBLE EAGLE   SUNNY     46  23  39 NW8       30.22R
MORIARTY ARPT  FAIR      48  20  33 NW15      30.17R
CLINES CORNERS SUNNY     44  29  55 NW23G31   30.15R
BELEN          FAIR      50  27  40 NW9       30.19R
SOCORRO        FAIR      55  37  50 NE8       30.16R

$$
NMZ524>526-539-540-021500-
SOUTHCENTRAL MOUNTAINS

CITY           SKY/WX    TMP DP  RH WIND       PRES   REMARKS
RUIDOSO        NOT AVBL

$$
NMZ527>531-021500-
NORTHEAST HIGHLANDS/NORTHEAST PLAINS

CITY           SKY/WX    TMP DP  RH WIND       PRES   REMARKS
LAS VEGAS      SUNNY     44  35  70 NE8       30.15R
RATON          CLOUDY    45  34  65 N15       30.16R
CLAYTON        MOSUNNY   50  36  58 N16G25    30.10R

$$
NMZ532>537-021500-
EASTCENTRAL PLAINS

CITY           SKY/WX    TMP DP  RH WIND       PRES   REMARKS
TUCUMCARI      SUNNY     57  42  57 N8        30.08R
CANNON AFB     SUNNY     55  45  67 N20G30    30.04R
CLOVIS AIRPORT   N/A     54  45  71 N21G29    30.07R

$$
NMZ028-029-538-021500-
SOUTHEAST PLAINS

CITY           SKY/WX    TMP DP  RH WIND       PRES   REMARKS
ROSWELL        SUNNY     59  45  59 N5        30.03R
CARLSBAD       SUNNY     61  44  53 N9        30.00R
HOBBS          SUNNY     61  45  55 NW10      30.01R


$$


USA.gov is the U.S. government's official web portal to all federal, state and local government web resources and services.